Tracking 28790 objects as of 19-Apr-2024
HD Live streaming from Space Station
objects crossing your sky now

DELTA 1 DEB

Track DELTA 1 DEB now!
10-day predictions


NORAD ID: 18645
Int'l Code: 1973-086GX
Perigee: 1,436.0 km
Apogee: 1,615.9 km
Inclination: 102.2 °
Period: 116.4 minutes
Semi major axis: 7896 km
RCS: 0.0222 m2 (small)
Launch date: November 6, 1973
Source: United States (US)
Launch site: AIR FORCE WESTERN TEST RANGE (AFWTR)

Note: This is SATELLITE DEBRIS
Your satellite tracking list
Your tracking list is empty




NASA's NSSDC Master Catalog

Two Line Element Set (TLE):
1 18645U 73086GX  24110.03904925  .00000294  00000-0  25766-2 0  9991
2 18645 102.2375 228.6460 0113880  83.2401 334.0229 12.37131338768032
Source of the keplerian elements: AFSPC